Time,TemperatureF,DewpointF,PressureIn,WindDirection,WindDirectionDegrees,WindSpeedMPH,WindSpeedGustMPH,Humidity,HourlyPrecipIn,Conditions,Clouds,dailyrainin,SoftwareType,DateUTC
2013-11-17 00:22:00,52.0,33.0,29.42,WNW,297,0.0,0.0,48,0.00,,,0.00,,2013-11-17 06:22:00,
2013-11-17 03:22:00,49.0,38.0,29.36,North,8,3.0,6.0,65,0.00,,,0.00,,2013-11-17 09:22:00,
2013-11-17 03:54:00,48.0,39.0,29.36,NE,37,0.0,7.0,71,0.00,,,0.00,,2013-11-17 09:54:00,
2013-11-17 04:23:00,48.0,40.0,29.33,NNE,26,0.0,0.0,73,0.00,,,0.00,,2013-11-17 10:23:00,
2013-11-17 04:53:00,48.0,40.0,29.33,SSW,212,0.0,4.0,74,0.00,,,0.00,,2013-11-17 10:53:00,
2013-11-17 05:22:00,49.0,42.0,29.33,NE,49,0.0,0.0,77,0.00,,,0.00,,2013-11-17 11:22:00,
2013-11-17 05:52:00,49.0,42.0,29.30,NE,49,0.0,0.0,78,0.00,,,0.00,,2013-11-17 11:52:00,
2013-11-17 06:22:00,50.0,45.0,29.27,East,99,0.0,5.0,83,0.00,,,0.00,,2013-11-17 12:22:00,
2013-11-17 06:52:00,49.0,44.0,29.33,NE,49,6.0,12.0,83,0.04,,,0.04,,2013-11-17 12:52:00,
2013-11-17 07:22:00,47.0,42.0,29.33,NNE,23,0.0,8.0,84,0.12,,,0.12,,2013-11-17 13:22:00,
2013-11-17 07:52:00,46.0,41.0,29.36,NE,42,2.0,7.0,83,0.12,,,0.12,,2013-11-17 13:52:00,
2013-11-17 08:21:00,46.0,37.0,29.36,NE,47,5.0,7.0,72,0.00,,,0.12,,2013-11-17 14:21:00,
2013-11-17 08:52:00,46.0,37.0,29.36,NE,39,5.0,8.0,72,0.00,,,0.12,,2013-11-17 14:52:00,
2013-11-17 09:22:00,46.0,38.0,29.39,NNE,16,6.0,11.0,74,0.00,,,0.12,,2013-11-17 15:22:00,
2013-11-17 09:54:00,45.0,39.0,29.42,NE,52,4.0,14.0,78,0.00,,,0.12,,2013-11-17 15:54:00,
2013-11-17 10:23:00,44.0,39.0,29.45,North,356,6.0,10.0,84,0.04,,,0.16,,2013-11-17 16:23:00,
2013-11-17 10:53:00,45.0,41.0,29.48,North,3,3.0,8.0,86,0.08,,,0.20,,2013-11-17 16:53:00,
2013-11-17 11:22:00,45.0,41.0,29.48,NW,318,6.0,8.0,87,0.04,,,0.20,,2013-11-17 17:22:00,
2013-11-17 11:52:00,46.0,43.0,29.48,North,356,6.0,9.0,89,0.04,,,0.20,,2013-11-17 17:52:00,
2013-11-17 12:23:00,47.0,43.0,29.48,NNE,15,6.0,11.0,85,0.00,,,0.20,,2013-11-17 18:23:00,
2013-11-17 12:52:00,50.0,39.0,29.48,North,356,4.0,10.0,65,0.00,,,0.20,,2013-11-17 18:52:00,
2013-11-17 13:22:00,51.0,38.0,29.51,NE,45,5.0,13.0,61,0.00,,,0.20,,2013-11-17 19:22:00,
2013-11-17 13:52:00,50.0,37.0,29.54,SW,226,10.0,17.0,61,0.00,,,0.20,,2013-11-17 19:52:00,
2013-11-17 18:21:00,47.0,32.0,29.78,NNE,16,3.0,7.0,56,0.00,,,0.20,,2013-11-18 00:21:00,
2013-11-17 18:52:00,46.0,32.0,29.78,NNE,20,0.0,6.0,59,0.00,,,0.20,,2013-11-18 00:52:00,
2013-11-17 19:22:00,45.0,33.0,29.80,NW,313,7.0,10.0,63,0.00,,,0.20,,2013-11-18 01:22:00,
2013-11-17 20:21:00,44.0,30.0,29.83,NW,310,4.0,10.0,58,0.00,,,0.20,,2013-11-18 02:21:00,
2013-11-17 20:52:00,43.0,30.0,29.86,NNE,15,5.0,10.0,61,0.00,,,0.20,,2013-11-18 02:52:00,
2013-11-17 21:54:00,44.0,31.0,29.89,NNE,32,4.0,12.0,59,0.00,,,0.20,,2013-11-18 03:54:00,
2013-11-17 22:13:00,44.0,31.0,29.92,NE,42,4.0,9.0,59,0.00,,,0.20,,2013-11-18 04:13:00,
2013-11-17 22:23:00,44.0,31.0,29.92,NNE,18,5.0,8.0,59,0.00,,,0.20,,2013-11-18 04:23:00,
2013-11-17 22:52:00,44.0,31.0,29.92,WNW,288,5.0,8.0,60,0.00,,,0.20,,2013-11-18 04:52:00,
2013-11-17 23:22:00,42.0,30.0,29.92,NW,312,3.0,10.0,63,0.00,,,0.20,,2013-11-18 05:22:00,
2013-11-17 23:53:00,41.0,30.0,29.95,North,2,6.0,12.0,65,0.00,,,0.20,,2013-11-18 05:53:00,